Temp
58 55 52 51 50 50 49 49 48 38 37 39 39 41 45 44 48 46 45 50 53 53 52 51 51 50 50 50 51 51 51 51 52 53 54 55 56 57
53 52 51 47 46 46 45 45 45 43 36 38 36 38 40 43 47 43 44 44 45 47 49 50 50 50 50 50 50 50 50 51 51 53 53 54 55 56
50 49 44 44 42 41 40 40 39 40 37 33 34 36 36 39 39 39 40 39 40 45 47 49 49 49 48 48 48 49 49 50 50 51 52 53 54 54
45 43 42 42 40 40 38 37 37 38 38 33 33 33 34 35 36 35 39 43 42 45 47 47 47 48 48 48 48 48 48 48 49 49 50 51 52 52
43 42 41 40 37 37 37 36 36 36 35 36 33 33 33 34 34 36 37 38 41 44 46 48 48 48 48 48 48 47 47 47 48 48 48 49 49 50
40 40 39 38 37 37 36 34 34 34 34 34 33 33 33 34 34 33 32 36 35 42 44 45 46 46 47 47 47 47 46 46 47 47 47 47 47 48
37 38 37 39 40 38 36 34 34 33 33 32 32 32 32 31 30 32 31 32 33 35 32 32 33 34 36 42 43 45 45 46 47 47 47 47 47 47
33 33 34 37 40 41 39 38 37 34 32 32 32 29 30 31 31 30 27 25 23 32 28 32 32 33 33 34 42 45 46 46 47 47 47 47 46 47
32 32 33 35 34 33 38 38 38 39 39 34 30 30 30 31 29 26 28 24 24 29 28 29 30 31 32 39 43 44 45 46 46 46 46 46 46 46
32 32 32 32 32 33 33 33 34 34 35 37 32 32 32 33 31 29 28 27 28 29 30 24 28 30 32 31 41 43 43 44 45 45 45 45 45 45
32 33 33 33 36 38 34 30 31 31 41 41 40 41 41 40 38 29 22 19 22 25 29 26 27 27 28 32 31 41 43 43 43 43 44 44 44 44
33 34 39 36 39 39 33 30 28 28 30 31 31 32 34 33 40 31 23 14 15 18 27 21 24 25 21 28 29 32 31 37 40 40 41 42 42 39
31 31 31 38 38 38 37 28 30 31 31 27 27 27 28 28 28 28 29 19 13 23 31 30 14 19 26 26 29 29 30 29 29 32 36 37 38 39
30 29 30 36 36 36 34 36 36 34 26 26 26 25 24 22 23 25 29 28 28 27 29 30 26 23 25 24 24 28 28 29 29 28 29 33 36 38
30 34 35 35 35 31 34 35 34 25 25 24 25 21 20 21 20 21 23 30 30 31 32 31 28 27 26 25 24 26 28 29 30 28 26 27 28 29
32 27 33 34 35 33 31 30 27 26 25 22 22 25 25 19 20 21 20 29 28 28 32 32 27 26 26 27 27 26 27 25 27 29 29 29 29 30
31 27 26 26 24 26 26 26 26 26 23 23 23 25 28 27 26 28 27 27 25 25 27 29 31 32 32 30 27 28 28 28 29 28 28 28 30 31
27 24 22 21 21 24 24 24 24 28 28 26 26 25 24 24 24 25 26 24 23 25 26 28 29 28 29 30 34 28 29 29 30 30 29 28 29 32
24 21 19 19 20 20 18 17 25 27 27 26 24 24 24 24 25 23 24 23 23 24 26 27 26 25 22 21 29 38 29 30 30 31 30 29 28 30
25 23 17 19 19 17 16 18 26 26 25 25 24 24 24 23 23 23 23 22 22 22 22 23 25 25 23 23 24 29 35 29 28 27 28 30 32 37
24 19 19 17 17 15 16 15 24 25 25 24 24 24 24 23 23 22 21 26 26 24 21 21 24 33 29 28 23 26 30 36 34 30 30 29 29 31
24 19 19 18 16 11 12 13 15 19 19 17 18 19 21 21 22 22 22 21 22 22 22 24 27 27 25 23 23 25 27 31 35 37 37 36 30 27
19 19 17 15 12 12 12 14 16 19 19 17 18 19 19 19 22 23 23 23 22 22 23 23 25 27 25 25 26 25 27 28 31 31 34 38 38 38
MSLP
1014.08 1014.58 1015.09 1015.56 1016.03 1016.47 1016.80 1017.16 1017.65 1019.39 1020.20 1020.20 1020.40 1021.05 1021.57 1021.35 1021.03 1021.35 1022.14 1022.93 1022.46 1022.17 1022.51 1022.81 1022.98 1022.82 1022.64 1022.87 1022.84 1022.58 1022.45 1022.28 1022.14 1022.00 1021.73 1021.53 1021.28 1021.04
1014.02 1014.52 1015.14 1015.73 1016.14 1016.37 1016.74 1017.20 1017.55 1018.45 1019.95 1020.68 1021.42 1020.47 1021.14 1021.90 1021.06 1021.66 1021.97 1022.37 1022.40 1022.27 1022.06 1022.15 1022.36 1022.24 1022.17 1022.32 1022.19 1022.06 1022.08 1021.75 1021.40 1021.24 1021.21 1020.97 1020.76 1020.51
1014.24 1014.76 1015.54 1015.99 1016.59 1017.06 1017.25 1017.47 1017.74 1018.09 1018.94 1019.76 1021.23 1020.90 1021.88 1022.18 1021.77 1022.03 1022.75 1022.49 1022.24 1021.99 1021.49 1021.58 1021.79 1021.79 1021.66 1021.76 1021.71 1021.41 1021.18 1021.15 1021.04 1020.75 1020.64 1020.51 1020.29 1020.06
1014.76 1015.45 1016.08 1016.52 1017.04 1017.37 1017.66 1017.95 1017.98 1018.37 1019.08 1019.71 1021.06 1021.11 1020.93 1021.61 1022.05 1022.25 1022.56 1022.08 1021.62 1021.48 1021.11 1021.17 1021.43 1021.48 1021.10 1021.02 1021.10 1020.90 1020.81 1020.44 1020.53 1020.47 1020.28 1020.09 1019.92 1019.83
1015.30 1015.85 1016.32 1016.92 1017.52 1017.74 1017.88 1018.12 1018.40 1018.47 1018.75 1019.24 1020.40 1020.99 1020.94 1021.49 1021.79 1022.07 1021.86 1021.42 1021.24 1020.95 1020.72 1020.76 1020.77 1020.72 1020.62 1020.51 1020.38 1020.40 1020.23 1019.84 1020.01 1019.95 1019.71 1019.69 1019.62 1019.51
1016.06 1016.42 1016.85 1016.98 1017.43 1017.72 1018.16 1018.44 1018.89 1019.08 1019.32 1019.74 1020.20 1020.81 1021.07 1021.46 1021.44 1021.61 1021.31 1020.99 1020.80 1020.38 1020.36 1020.64 1020.46 1020.26 1020.07 1019.89 1019.90 1019.75 1019.59 1019.41 1019.31 1019.30 1019.15 1019.15 1019.08 1018.97
1016.87 1017.22 1017.35 1017.24 1017.93 1018.33 1018.45 1018.74 1019.08 1019.45 1019.62 1020.04 1019.99 1020.60 1020.92 1021.07 1021.16 1020.95 1020.95 1020.66 1020.68 1020.39 1020.59 1020.60 1020.56 1020.43 1020.09 1019.77 1019.64 1019.38 1019.03 1018.75 1018.61 1018.54 1018.51 1018.40 1018.28 1018.13
1018.03 1018.05 1018.38 1018.43 1018.30 1018.60 1018.73 1019.03 1019.28 1019.38 1019.70 1019.94 1020.12 1020.44 1020.84 1020.87 1020.73 1020.77 1020.93 1021.08 1020.97 1020.44 1020.63 1020.24 1020.44 1019.92 1019.69 1019.41 1019.00 1018.50 1018.21 1018.01 1017.88 1017.81 1017.75 1017.60 1017.45 1017.33
1018.90 1018.85 1019.31 1019.45 1019.38 1019.24 1019.27 1019.25 1019.36 1019.38 1019.53 1019.58 1019.98 1020.48 1020.61 1020.57 1020.60 1020.71 1020.77 1020.81 1020.86 1020.59 1020.59 1019.87 1019.81 1019.47 1019.00 1018.46 1018.10 1017.81 1017.58 1017.38 1017.24 1017.11 1016.95 1016.82 1016.67 1016.51
1019.45 1019.39 1019.90 1019.88 1019.87 1019.69 1019.68 1019.88 1019.62 1019.34 1019.74 1019.76 1019.96 1020.15 1020.14 1020.19 1020.20 1020.36 1020.36 1020.45 1020.45 1020.39 1020.29 1019.76 1019.22 1018.83 1018.17 1017.90 1017.50 1017.18 1017.04 1016.87 1016.56 1016.35 1016.20 1016.06 1015.97 1015.78
1019.89 1019.84 1019.91 1020.04 1019.96 1019.75 1019.75 1019.92 1019.72 1019.63 1019.20 1019.33 1019.51 1019.56 1019.50 1019.47 1019.56 1019.83 1020.27 1020.76 1020.73 1020.25 1019.86 1019.76 1019.02 1018.63 1017.86 1017.24 1017.07 1016.82 1016.64 1016.56 1016.41 1016.12 1015.76 1015.38 1015.10 1014.88
1019.97 1019.96 1019.91 1020.01 1019.88 1019.84 1019.88 1019.92 1019.88 1019.93 1019.77 1019.73 1019.81 1019.68 1019.46 1019.43 1019.22 1019.55 1020.01 1021.01 1021.13 1020.40 1019.62 1019.66 1019.26 1019.34 1018.60 1017.12 1017.00 1016.94 1016.75 1016.47 1015.96 1015.70 1015.34 1014.96 1014.60 1014.26
1020.25 1020.21 1020.17 1020.06 1020.02 1019.94 1019.87 1019.98 1019.90 1019.85 1019.91 1019.94 1019.89 1019.71 1019.68 1019.65 1019.55 1019.49 1019.59 1020.12 1020.38 1019.97 1019.36 1019.63 1019.39 1019.53 1019.47 1018.41 1016.57 1016.44 1016.41 1016.04 1015.86 1015.43 1015.11 1014.71 1014.29 1013.80
1020.53 1020.45 1020.32 1020.24 1020.19 1020.08 1019.99 1019.94 1019.92 1019.87 1020.03 1020.05 1020.02 1020.05 1020.09 1019.83 1019.62 1019.51 1019.37 1019.54 1019.54 1019.47 1019.44 1019.62 1019.43 1019.26 1019.01 1018.38 1017.51 1015.93 1015.91 1015.56 1015.22 1014.71 1014.38 1014.01 1013.59 1013.13
1020.55 1020.43 1020.41 1020.34 1020.23 1020.20 1020.01 1019.85 1019.86 1020.02 1020.06 1020.13 1020.17 1020.14 1019.91 1019.90 1019.65 1019.53 1019.33 1019.02 1018.85 1018.69 1018.62 1018.67 1018.73 1018.52 1018.37 1017.73 1016.98 1015.83 1015.48 1014.24 1014.18 1013.89 1013.55 1013.35 1012.91 1012.44
1020.65 1020.52 1020.32 1020.18 1020.08 1019.99 1019.95 1019.93 1019.90 1019.89 1019.93 1019.96 1019.96 1019.77 1019.72 1019.79 1019.58 1019.36 1019.18 1018.78 1018.52 1018.14 1017.88 1017.81 1017.89 1017.88 1017.15 1016.65 1016.29 1015.10 1014.64 1014.49 1013.30 1012.86 1012.56 1012.11 1011.61 1011.25
1020.54 1020.51 1020.38 1020.23 1020.16 1020.10 1019.97 1019.87 1019.78 1019.72 1019.86 1019.75 1019.73 1019.72 1019.61 1019.56 1019.44 1019.25 1019.09 1018.75 1018.38 1017.79 1017.25 1016.98 1016.57 1016.26 1015.84 1015.56 1014.98 1014.23 1013.47 1012.87 1012.47 1011.95 1011.60 1010.86 1010.27 1009.74
1020.68 1020.73 1020.56 1020.43 1020.42 1020.35 1020.22 1020.06 1019.88 1019.67 1019.66 1019.68 1019.71 1019.77 1019.64 1019.41 1019.18 1018.99 1018.76 1018.48 1018.02 1017.46 1016.84 1016.33 1015.93 1015.40 1014.73 1014.02 1013.81 1012.84 1012.25 1011.76 1011.12 1010.77 1010.36 1009.71 1008.78 1008.28
1020.76 1020.80 1020.78 1020.72 1020.65 1020.61 1020.49 1020.26 1019.99 1019.86 1019.77 1019.73 1019.66 1019.52 1019.32 1019.11 1018.86 1018.58 1018.27 1017.93 1017.37 1016.90 1016.30 1015.84 1015.51 1015.14 1014.20 1012.87 1012.07 1011.75 1011.18 1010.53 1010.13 1009.69 1009.10 1008.49 1007.66 1006.95
1020.67 1020.78 1020.84 1020.89 1020.83 1020.81 1020.72 1020.47 1019.99 1019.87 1019.76 1019.59 1019.39 1019.21 1019.02 1018.78 1018.36 1018.04 1017.71 1017.26 1016.73 1016.13 1015.52 1015.05 1014.66 1014.24 1013.67 1012.60 1011.43 1010.62 1010.49 1009.70 1009.28 1008.37 1007.65 1006.94 1006.20 1005.62
1020.71 1020.77 1020.70 1020.69 1020.63 1020.43 1020.27 1020.09 1019.87 1019.71 1019.48 1019.23 1018.92 1018.68 1018.44 1018.19 1017.69 1017.31 1016.93 1016.39 1015.79 1015.24 1014.70 1014.09 1013.64 1013.19 1012.73 1012.29 1011.01 1009.50 1008.66 1008.43 1007.84 1007.29 1006.38 1005.68 1004.60 1004.04
1020.45 1020.51 1020.36 1020.30 1020.24 1020.15 1020.02 1019.88 1019.70 1019.42 1019.09 1018.87 1018.56 1018.25 1017.83 1017.51 1017.04 1016.59 1016.10 1015.54 1014.97 1014.46 1013.77 1013.14 1012.63 1012.21 1011.76 1011.12 1009.58 1008.49 1007.47 1006.75 1006.26 1005.57 1005.04 1004.49 1003.65 1002.40
1020.24 1020.16 1020.05 1019.98 1019.93 1019.78 1019.63 1019.48 1019.27 1018.93 1018.62 1018.28 1017.92 1017.51 1017.15 1016.76 1016.20 1015.65 1015.11 1014.62 1014.08 1013.46 1012.86 1011.96 1011.42 1010.86 1010.06 1009.53 1008.54 1007.27 1006.31 1005.44 1004.62 1003.71 1002.94 1002.55 1002.06 1001.19
Wind_Speed
11 8 3 4 4 3 1 2 5 5 3 1 4 3 2 4 7 5 4 7 9 8 8 12 15 13 13 14 16 17 17 17 17 18 18 18 18 19
2 4 3 2 3 3 4 3 1 4 4 1 3 4 3 4 7 4 1 2 7 10 12 14 16 15 14 16 18 18 19 18 17 18 19 19 19 19
3 4 4 4 3 3 3 3 3 3 3 3 2 2 1 1 2 1 3 4 4 14 14 15 16 16 16 18 19 18 18 19 18 18 18 19 19 19
5 6 5 4 4 4 3 3 4 3 4 4 2 2 3 3 0 3 5 6 4 10 14 15 15 17 18 18 18 18 19 17 18 18 18 19 19 20
5 6 6 6 5 4 5 4 3 2 2 3 3 1 1 2 3 5 6 5 5 12 14 14 14 16 17 17 18 18 18 17 19 19 19 19 20 21
7 6 5 6 6 7 4 5 3 4 3 3 3 2 1 2 3 3 4 3 4 6 6 10 16 16 17 15 16 16 17 17 18 18 18 19 19 21
7 5 4 7 7 4 4 4 5 3 3 2 3 2 3 2 4 4 4 2 2 2 2 3 3 4 6 12 14 17 17 17 17 16 18 19 20 22
8 9 8 9 7 9 10 9 5 4 3 1 2 1 2 4 3 2 1 1 2 2 2 7 2 7 5 5 15 17 17 17 17 17 19 20 21 22
7 6 5 5 6 5 5 4 3 4 4 3 2 3 2 1 3 1 2 3 3 4 2 9 3 7 5 7 16 18 18 17 18 19 19 20 20 21
6 7 4 4 2 3 2 1 2 1 4 1 2 1 1 1 1 4 3 2 3 3 2 6 1 6 5 4 15 18 17 16 16 16 17 19 20 22
4 4 5 3 3 3 2 3 2 4 5 4 3 7 9 9 8 1 2 2 3 3 3 3 3 4 3 7 5 10 12 14 19 20 20 21 22 23
3 3 5 3 3 3 2 4 2 2 4 5 5 4 6 5 10 4 3 3 2 3 3 1 3 3 6 3 2 6 6 12 19 21 22 22 22 10
3 2 2 5 5 5 5 3 2 3 5 4 4 4 4 4 4 3 3 4 3 4 6 3 1 1 2 6 6 4 6 6 6 10 19 20 20 17
3 3 3 5 4 6 5 7 9 7 3 3 3 3 3 3 2 2 3 2 3 5 3 2 5 3 6 9 10 6 7 8 8 8 8 13 19 21
1 3 4 5 6 6 9 8 7 3 3 2 3 3 2 3 2 2 3 6 7 7 7 9 9 9 8 9 11 12 12 9 9 9 6 7 9 8
7 4 4 6 5 5 4 3 2 3 2 2 2 3 3 3 2 2 2 5 6 6 7 8 9 10 10 10 9 13 10 8 7 10 9 8 9 9
5 3 3 2 2 3 2 2 3 3 1 2 2 3 6 5 5 5 5 5 6 7 8 6 9 10 9 11 11 11 13 12 10 10 10 11 10 10
2 3 3 2 2 3 3 3 3 4 4 3 2 4 5 5 6 5 5 5 7 8 8 8 7 8 8 10 18 13 12 12 11 11 10 11 11 10
1 2 2 2 2 2 2 2 4 5 5 4 3 4 5 5 9 6 6 7 8 8 8 7 7 7 11 14 9 16 12 10 9 12 11 11 13 13
2 3 2 2 2 2 2 2 5 4 4 4 4 5 5 6 7 7 7 8 8 9 9 7 8 8 10 12 13 12 15 13 12 12 13 12 13 23
3 3 2 2 3 3 3 3 5 6 7 5 5 6 6 6 8 8 8 16 16 9 10 10 8 18 10 9 11 13 12 20 21 15 13 13 14 12
4 3 3 3 3 3 3 3 3 5 6 5 6 6 7 7 9 10 9 10 9 9 11 10 10 9 9 11 14 17 14 12 17 25 28 27 15 14
3 3 3 3 3 3 3 4 5 7 6 6 7 7 7 8 9 10 10 10 10 10 11 11 9 9 11 11 18 15 20 17 13 13 13 20 27 31
Wind_Direction
221 215 196 196 192 190 208 226 190 185 226 160 125 21 36 64 125 128 173 256 237 256 273 283 286 281 282 284 285 288 288 285 283 281 278 277 276 274
199 190 197 120 120 144 151 158 156 144 167 128 308 98 154 166 156 107 162 278 292 283 273 276 275 277 282 283 285 287 285 280 279 281 282 282 280 281
97 144 120 125 128 104 91 106 113 121 133 136 223 136 56 309 87 43 287 268 256 256 262 270 281 283 285 285 283 282 278 283 284 281 281 282 283 282
103 101 114 112 109 122 114 116 131 140 138 130 147 226 153 178 259 270 261 261 260 270 270 277 282 278 278 280 283 280 280 279 279 280 280 282 284 286
104 127 131 128 125 134 133 136 142 116 104 133 147 179 146 171 197 237 239 242 254 267 274 279 290 289 289 285 282 281 280 283 284 284 283 283 282 281
88 103 129 133 148 149 149 128 118 118 98 99 95 116 109 182 195 237 262 235 245 256 286 294 287 292 286 289 289 288 291 287 282 280 277 275 275 275
74 69 71 103 119 118 121 116 123 105 96 140 120 155 189 188 200 219 222 255 285 253 281 280 292 298 291 292 287 290 289 282 279 278 276 274 273 272
60 52 39 54 85 108 120 130 136 141 153 154 145 145 236 229 233 192 151 77 314 319 46 295 260 278 268 259 276 285 288 285 283 281 279 278 277 277
70 73 74 51 50 37 72 97 162 187 167 158 172 218 240 181 151 181 212 185 222 269 298 282 233 260 252 267 287 291 291 290 290 288 286 283 281 279
77 72 50 44 39 65 39 293 277 318 279 278 154 252 254 291 150 192 229 250 289 278 248 272 229 288 283 262 285 294 297 294 292 293 291 288 283 280
87 128 157 191 222 287 313 270 263 276 270 187 276 288 288 294 288 52 338 38 306 259 241 253 299 302 280 287 275 296 316 317 312 300 295 294 294 291
182 125 60 49 10 336 17 359 30 20 17 350 333 319 319 313 287 238 165 182 216 324 301 54 345 12 324 285 323 315 282 295 307 306 302 297 296 293
56 40 76 33 2 2 4 2 326 338 328 319 301 314 314 292 275 278 215 157 190 235 268 314 260 327 222 299 298 295 297 301 297 296 296 297 296 288
38 35 20 22 359 333 327 308 319 332 339 312 317 306 296 298 293 304 345 301 237 253 262 226 272 271 284 288 287 306 298 293 283 285 287 290 291 289
355 340 351 340 339 354 328 328 331 336 311 316 296 272 237 245 284 313 270 255 254 252 257 237 238 258 251 259 273 283 291 300 284 275 270 266 273 272
21 345 310 316 320 312 315 311 289 243 235 235 254 285 309 341 317 271 266 287 277 271 242 247 236 239 258 252 255 273 275 274 278 278 273 270 264 254
353 332 320 309 318 331 325 312 303 301 312 305 314 317 309 307 304 312 300 296 280 285 283 265 247 247 252 262 269 265 276 275 269 272 276 277 274 268
2 312 302 350 343 327 323 321 321 317 307 311 334 310 292 292 295 288 274 274 277 279 282 286 284 277 269 257 243 266 268 269 274 270 265 270 277 276
322 306 314 310 283 288 281 273 306 298 300 290 267 266 274 279 296 283 275 270 272 273 277 282 281 278 282 280 274 254 268 274 281 280 272 266 272 274
261 270 260 269 273 265 275 270 295 293 290 287 287 282 277 276 281 283 280 276 275 275 274 266 260 260 264 275 285 280 265 279 273 274 276 272 263 267
292 286 257 260 263 258 261 268 278 284 282 266 265 272 271 268 271 270 267 280 283 283 280 276 268 277 283 287 275 274 274 260 257 263 274 277 278 279
277 270 273 266 262 249 263 261 267 273 272 260 264 262 267 266 273 275 270 272 271 270 271 275 277 270 261 257 269 278 282 278 265 261 255 255 267 275
265 262 264 265 266 265 259 261 259 268 263 258 263 265 264 266 268 266 268 270 273 274 273 277 277 268 263 262 269 276 275 282 283 278 265 250 250 264